Ashland, WI

6:03 AM CDT on May 24, 2017 (GMT -0500)
Kennedy Memorial

Weather History for KASX - September, 2013

Change the Weather History Date:

Wednesday, September 11, 2013

  Actual Average Record
Temperature  
Mean Temperature 64 °F -  
Max Temperature 77 °F 69 °F 91 °F (2005)
Min Temperature 53 °F 47 °F 31 °F (1965)
Degree Days  
Heating Degree Days 1    
Growing Degree Days 14 (Base 50)    
Moisture  
Dew Point 57 °F    
Average Humidity 83    
Maximum Humidity 100    
Minimum Humidity 44    
Precipitation  
Precipitation 0.08 in - - ()
Sea Level Pressure  
Sea Level Pressure 29.98 in    
Wind  
Wind Speed 6 mph (West)    
Max Wind Speed 12 mph    
Max Gust Speed 20 mph    
Visibility 8 miles    
Events Fog , Rain    
Averages and records for this station are not official NWS values.
T = Trace of Precipitation, MM = Missing Value Source: NWS Daily Summary

Daily Weather History Graph

Daily Weather History Graph

Search for Another Location

Airport or City:

Trip Planner

Search our weather history database for the weather conditions in past years. The results will help you decide how hot, cold, wet, or windy it might be!

Date:

Astronomy

Sep. 11, 2013 Rise Set
Actual Time 6:36 AM CDT 7:22 PM CDT
Civil Twilight 6:06 AM CDT 7:53 PM CDT
Nautical Twilight 5:29 AM CDT 8:29 PM CDT
Astronomical Twilight 4:51 AM CDT 9:07 PM CDT
Moon 1:28 PM CDT (9/11) 10:55 PM CDT (9/11)
Length of Visible Light 13h 46m
Length of Day
12h 45m
Waxing Crescent, 39% of the Moon is Illuminated
Sep 11
Waxing Crescent
Sep 12
First Quarter
Sep 19
Full
Sep 26
Last Quarter
Oct 4
New

Hourly Weather History & Observations

Time (CDT) Temp. Dew Point Humidity Pressure Visibility Wind Dir Wind Speed Gust Speed Precip Events Conditions
12:53 AM 62.1 °F 60.1 °F 93% 29.94 in 10.0 mi WSW 5.8 mph - N/A   Clear
1:53 AM 60.1 °F 59.0 °F 96% 29.94 in 10.0 mi WSW 3.5 mph - N/A   Clear
2:53 AM 61.0 °F 59.0 °F 93% 29.96 in 10.0 mi SW 4.6 mph - N/A   Clear
3:53 AM 61.0 °F 59.0 °F 93% 29.96 in 10.0 mi SW 4.6 mph - N/A   Clear
4:53 AM 60.1 °F 57.9 °F 93% 29.97 in 10.0 mi SW 5.8 mph - N/A   Clear
5:53 AM 59.0 °F 57.9 °F 96% 29.96 in 10.0 mi SSW 6.9 mph - N/A   Clear
6:53 AM 57.9 °F 57.0 °F 97% 29.97 in 7.0 mi SSW 4.6 mph - N/A   Partly Cloudy
7:53 AM 63.0 °F 60.1 °F 90% 29.96 in 10.0 mi SW 8.1 mph - N/A   Clear
8:53 AM 66.9 °F 61.0 °F 81% 29.95 in 10.0 mi SW 8.1 mph - N/A   Partly Cloudy
9:53 AM 71.1 °F 62.1 °F 73% 29.94 in 10.0 mi WSW 11.5 mph 19.6 mph N/A   Partly Cloudy
10:53 AM 73.9 °F 62.1 °F 66% 29.93 in - WSW 11.5 mph 18.4 mph N/A   Clear
11:53 AM 75.0 °F 63.0 °F 66% 29.93 in 10.0 mi WSW 10.4 mph - N/A   Clear
1:53 PM 75.0 °F 57.9 °F 55% 29.97 in 10.0 mi WNW 10.4 mph 18.4 mph N/A   Clear
2:53 PM 75.9 °F 57.0 °F 52% 29.98 in 10.0 mi WNW 9.2 mph 17.3 mph N/A   Scattered Clouds
3:53 PM 75.0 °F 52.0 °F 44% 29.99 in 10.0 mi NW 10.4 mph 19.6 mph N/A   Clear
4:53 PM 73.9 °F 53.1 °F 48% 29.99 in 10.0 mi WNW 9.2 mph - N/A   Clear
5:53 PM 73.0 °F 54.0 °F 51% 30.00 in 10.0 mi WNW 4.6 mph - N/A   Clear
6:53 PM 66.9 °F 57.9 °F 73% 29.99 in 10.0 mi Calm Calm - N/A   Clear
7:53 PM 59.0 °F 55.9 °F 90% 29.98 in 10.0 mi Calm Calm - N/A   Clear
8:53 PM 60.1 °F 57.9 °F 93% 30.00 in 10.0 mi NNW 4.6 mph - N/A   Overcast
9:53 PM 59.0 °F 57.0 °F 93% 30.04 in 9.0 mi North 5.8 mph - 0.08 in Rain Light Rain
10:53 PM 55.9 °F 54.0 °F 93% 30.03 in 10.0 mi Calm Calm - 0.00 in   Clear
11:15 PM 55.4 °F 53.6 °F 94% 30.03 in 1.5 mi Calm Calm - N/A   Clear
11:18 PM 53.6 °F 53.6 °F 100% 30.03 in 0.8 mi Calm Calm - N/A   Mist
11:26 PM 53.6 °F 53.6 °F 100% 30.03 in 1.2 mi Calm Calm - N/A   Partly Cloudy
11:31 PM 53.6 °F 53.6 °F 100% 30.03 in 0.8 mi Calm Calm - N/A   Mist
11:43 PM 53.6 °F 53.6 °F 100% 30.03 in 0.2 mi NW 3.5 mph - N/A Fog Fog
11:53 PM 55.0 °F 54.0 °F 96% 30.04 in 0.5 mi NW 3.5 mph - N/A Fog Fog